Year,Month,Day,Hour,Minute,Value (Times are PST for temperature in C)
2015,09,26,00,00,8.50
2015,09,26,00,01,8.50
2015,09,26,00,02,8.60
2015,09,26,00,03,8.60
2015,09,26,00,04,8.60
2015,09,26,00,05,8.60
2015,09,26,00,06,8.60
2015,09,26,00,07,8.60
2015,09,26,00,08,8.60
2015,09,26,00,09,8.60
2015,09,26,00,10,8.60
2015,09,26,00,11,8.60
2015,09,26,00,12,8.60
2015,09,26,00,13,8.60
2015,09,26,00,14,8.50
2015,09,26,00,15,8.50
2015,09,26,00,16,8.50
2015,09,26,00,17,8.50
2015,09,26,00,18,8.50
2015,09,26,00,19,8.50
2015,09,26,00,20,8.50
2015,09,26,00,21,8.50
2015,09,26,00,22,8.40
2015,09,26,00,23,8.40
2015,09,26,00,24,8.40
2015,09,26,00,25,8.40
2015,09,26,00,26,8.40
2015,09,26,00,27,8.30
2015,09,26,00,28,8.30
2015,09,26,00,29,8.30
2015,09,26,00,30,8.30
2015,09,26,00,31,8.30
2015,09,26,00,32,8.30
2015,09,26,00,33,8.30
2015,09,26,00,34,8.30
2015,09,26,00,35,8.30
2015,09,26,00,36,8.30
2015,09,26,00,37,8.20
2015,09,26,00,38,8.20
2015,09,26,00,39,8.20
2015,09,26,00,40,8.20
2015,09,26,00,41,8.20
2015,09,26,00,42,8.20
2015,09,26,00,43,8.10
2015,09,26,00,44,8.10
2015,09,26,00,45,8.10
2015,09,26,00,46,8.10
2015,09,26,00,47,8.10
2015,09,26,00,48,8.10
2015,09,26,00,49,8.10
2015,09,26,00,50,8.10
2015,09,26,00,51,8.10
2015,09,26,00,52,8.10
2015,09,26,00,53,8.10
2015,09,26,00,54,8.10
2015,09,26,00,55,8.10
2015,09,26,00,56,8.00
2015,09,26,00,57,8.10
2015,09,26,00,58,8.00
2015,09,26,00,59,8.00
2015,09,26,01,00,8.00
2015,09,26,01,01,8.00
2015,09,26,01,02,8.00
2015,09,26,01,03,8.00
2015,09,26,01,04,8.00
2015,09,26,01,05,8.00
2015,09,26,01,06,8.00
2015,09,26,01,07,8.00
2015,09,26,01,08,8.00
2015,09,26,01,09,8.00
2015,09,26,01,10,7.90
2015,09,26,01,11,7.90
2015,09,26,01,12,7.90
2015,09,26,01,13,7.90
2015,09,26,01,14,7.90
2015,09,26,01,15,7.80
2015,09,26,01,16,7.90
2015,09,26,01,17,7.90
2015,09,26,01,18,7.90
2015,09,26,01,19,7.90
2015,09,26,01,20,7.90
2015,09,26,01,21,7.90
2015,09,26,01,22,8.00
2015,09,26,01,23,8.00
2015,09,26,01,24,8.00
2015,09,26,01,25,8.00
2015,09,26,01,26,8.10
2015,09,26,01,27,8.10
2015,09,26,01,28,8.10
2015,09,26,01,29,8.20
2015,09,26,01,30,8.20
2015,09,26,01,31,8.30
2015,09,26,01,32,8.30
2015,09,26,01,33,8.40
2015,09,26,01,34,8.50
2015,09,26,01,35,8.50
2015,09,26,01,36,8.60
2015,09,26,01,37,8.70
2015,09,26,01,38,8.70
2015,09,26,01,39,8.70
2015,09,26,01,40,8.80
2015,09,26,01,41,8.80
2015,09,26,01,42,8.90
2015,09,26,01,43,9.00
2015,09,26,01,44,9.00
2015,09,26,01,45,9.10
2015,09,26,01,46,9.20
2015,09,26,01,47,9.20
2015,09,26,01,48,9.30
2015,09,26,01,49,9.30
2015,09,26,01,50,9.40
2015,09,26,01,51,9.50
2015,09,26,01,52,9.50
2015,09,26,01,53,9.60
2015,09,26,01,54,9.70
2015,09,26,01,55,9.70
2015,09,26,01,56,9.80
2015,09,26,01,57,9.80
2015,09,26,01,58,9.80
2015,09,26,01,59,9.80
2015,09,26,02,00,9.90
2015,09,26,02,01,9.90
2015,09,26,02,02,9.90
2015,09,26,02,03,9.90
2015,09,26,02,04,10.00
2015,09,26,02,05,10.00
2015,09,26,02,06,10.10
2015,09,26,02,07,10.10
2015,09,26,02,08,10.10
2015,09,26,02,09,10.20
2015,09,26,02,10,10.20
2015,09,26,02,11,10.30
2015,09,26,02,12,10.30
2015,09,26,02,13,10.40
2015,09,26,02,14,10.40
2015,09,26,02,15,10.50
2015,09,26,02,16,10.60
2015,09,26,02,17,10.60
2015,09,26,02,18,10.70
2015,09,26,02,19,10.70
2015,09,26,02,20,10.80
2015,09,26,02,21,10.80
2015,09,26,02,22,10.80
2015,09,26,02,23,10.80
2015,09,26,02,24,10.90
2015,09,26,02,25,10.90
2015,09,26,02,26,10.90
2015,09,26,02,27,10.90
2015,09,26,02,28,11.00
2015,09,26,02,29,11.00
2015,09,26,02,30,11.10
2015,09,26,02,31,11.10
2015,09,26,02,32,11.20
2015,09,26,02,33,11.20
2015,09,26,02,34,11.20
2015,09,26,02,35,11.30
2015,09,26,02,36,11.30
2015,09,26,02,37,11.30
2015,09,26,02,38,11.40
2015,09,26,02,39,11.40
2015,09,26,02,40,11.50
2015,09,26,02,41,11.60
2015,09,26,02,42,11.60
2015,09,26,02,43,11.70
2015,09,26,02,44,11.70
2015,09,26,02,45,11.80
2015,09,26,02,46,11.80
2015,09,26,02,47,11.90
2015,09,26,02,48,12.00
2015,09,26,02,49,12.00
2015,09,26,02,50,12.10
2015,09,26,02,51,12.20
2015,09,26,02,52,12.20
2015,09,26,02,53,12.20
2015,09,26,02,54,12.20
2015,09,26,02,55,12.30
2015,09,26,02,56,12.30
2015,09,26,02,57,12.40
2015,09,26,02,58,12.50
2015,09,26,02,59,12.50
2015,09,26,03,00,12.60
2015,09,26,03,01,12.60
2015,09,26,03,02,12.60
2015,09,26,10,03,12.70
2015,09,26,10,04,12.70
2015,09,26,10,05,12.70
2015,09,26,10,06,12.70
2015,09,26,10,07,12.70
2015,09,26,10,08,12.70
2015,09,26,10,09,12.70
2015,09,26,10,10,12.80
2015,09,26,10,11,12.80
2015,09,26,10,12,12.80
2015,09,26,10,13,12.90
2015,09,26,10,14,12.90
2015,09,26,10,15,12.90
2015,09,26,10,16,12.90
2015,09,26,10,17,12.90
2015,09,26,10,18,13.00
2015,09,26,10,19,13.00
2015,09,26,10,20,13.00
2015,09,26,10,21,13.00
2015,09,26,10,22,13.10
2015,09,26,10,23,13.10
2015,09,26,10,24,13.10
2015,09,26,10,25,13.10
2015,09,26,10,26,13.10
2015,09,26,10,27,13.20
2015,09,26,10,28,13.20
2015,09,26,10,29,13.20
2015,09,26,10,30,13.20
2015,09,26,10,31,13.20
2015,09,26,10,32,13.30
2015,09,26,10,33,13.30
2015,09,26,10,34,13.30
2015,09,26,10,35,13.30
2015,09,26,10,36,13.30
2015,09,26,10,37,13.30
2015,09,26,10,38,13.40
2015,09,26,10,39,13.50
2015,09,26,10,40,13.60
2015,09,26,10,41,13.70
2015,09,26,10,42,13.70
2015,09,26,10,43,13.80
2015,09,26,10,44,13.80
2015,09,26,10,45,13.80
2015,09,26,10,46,13.80
2015,09,26,10,47,13.90
2015,09,26,10,48,13.90
2015,09,26,10,49,13.90
2015,09,26,10,50,14.00
2015,09,26,10,51,14.10
2015,09,26,10,52,14.10
2015,09,26,10,53,14.10
2015,09,26,10,54,14.20
2015,09,26,10,55,14.10
2015,09,26,10,56,14.10
2015,09,26,10,57,14.10
2015,09,26,10,58,14.10
2015,09,26,10,59,14.10
2015,09,26,11,00,14.20
2015,09,26,11,01,14.20
2015,09,26,11,02,14.20
2015,09,26,11,03,14.10
2015,09,26,11,04,14.00
2015,09,26,11,05,14.00
2015,09,26,11,06,14.00
2015,09,26,11,07,14.00
2015,09,26,11,08,14.10
2015,09,26,11,09,14.10
2015,09,26,11,10,14.10
2015,09,26,11,11,14.10
2015,09,26,11,12,14.10
2015,09,26,11,13,14.10
2015,09,26,11,14,14.10
2015,09,26,11,15,14.00
2015,09,26,11,16,13.90
2015,09,26,11,17,13.90
2015,09,26,11,18,14.00
2015,09,26,11,19,14.00
2015,09,26,11,20,14.10
2015,09,26,11,21,14.10
2015,09,26,11,22,14.20
2015,09,26,11,23,14.20
2015,09,26,11,24,14.30
2015,09,26,11,25,14.30
2015,09,26,11,26,14.30
2015,09,26,11,27,14.30
2015,09,26,11,28,14.30
2015,09,26,11,29,14.30
2015,09,26,11,30,14.30
2015,09,26,11,31,14.30
2015,09,26,11,32,14.20
2015,09,26,11,33,14.20
2015,09,26,11,34,14.20
2015,09,26,11,35,14.20
2015,09,26,11,36,14.20
2015,09,26,11,37,14.30
2015,09,26,11,38,14.30
2015,09,26,11,39,14.30
2015,09,26,11,40,14.30
2015,09,26,11,41,14.30
2015,09,26,11,42,14.30
2015,09,26,11,43,14.20
2015,09,26,11,44,14.20
2015,09,26,11,45,14.20
2015,09,26,11,46,14.20
2015,09,26,11,47,14.10
2015,09,26,11,48,14.10
2015,09,26,11,49,14.10
2015,09,26,11,50,14.20
2015,09,26,11,51,14.20
2015,09,26,11,52,14.30
2015,09,26,11,53,14.30
2015,09,26,11,54,14.30
2015,09,26,11,55,14.30
2015,09,26,11,56,14.30
2015,09,26,11,57,14.30
2015,09,26,11,58,14.40
2015,09,26,11,59,14.40
2015,09,26,12,00,14.50
2015,09,26,12,01,14.60
2015,09,26,12,02,14.60
2015,09,26,12,03,14.60
2015,09,26,12,04,14.70
2015,09,26,12,05,14.80
2015,09,26,12,06,14.80
2015,09,26,12,07,14.90
2015,09,26,12,08,14.90
2015,09,26,12,09,14.90
2015,09,26,12,10,14.90
2015,09,26,12,11,14.90
2015,09,26,12,12,14.90
2015,09,26,12,13,14.80
2015,09,26,12,14,14.80
2015,09,26,12,15,14.80
2015,09,26,12,16,14.70
2015,09,26,12,17,14.70
2015,09,26,12,18,14.70
2015,09,26,12,19,14.70
2015,09,26,12,20,14.70
2015,09,26,12,21,14.80
2015,09,26,12,22,14.80
2015,09,26,12,23,14.90
2015,09,26,12,24,14.90
2015,09,26,12,25,15.00
2015,09,26,12,26,15.10
2015,09,26,12,27,15.20
2015,09,26,12,28,15.20
2015,09,26,12,29,15.20
2015,09,26,12,30,15.10
2015,09,26,12,31,15.10
2015,09,26,12,32,15.10
2015,09,26,12,33,15.10
2015,09,26,12,34,15.10
2015,09,26,12,35,15.10
2015,09,26,12,36,15.00
2015,09,26,12,37,15.00
2015,09,26,12,38,15.00
2015,09,26,12,39,15.00
2015,09,26,12,40,15.00
2015,09,26,12,41,15.10
2015,09,26,12,42,15.10
2015,09,26,12,43,15.20
2015,09,26,12,44,15.20
2015,09,26,12,45,15.20
2015,09,26,12,46,15.20
2015,09,26,12,47,15.20
2015,09,26,12,48,15.30
2015,09,26,12,49,15.30
2015,09,26,12,50,15.40
2015,09,26,12,51,15.40
2015,09,26,12,52,15.40
2015,09,26,12,53,15.30
2015,09,26,12,54,15.30
2015,09,26,12,55,15.30
2015,09,26,12,56,15.30
2015,09,26,12,57,15.30
2015,09,26,12,58,15.40
2015,09,26,12,59,15.50
2015,09,26,13,00,15.50
2015,09,26,13,01,15.50
2015,09,26,13,02,15.50
2015,09,26,13,03,15.60
2015,09,26,13,04,15.60
2015,09,26,13,05,15.70
2015,09,26,13,06,15.70
2015,09,26,13,07,15.70
2015,09,26,13,08,15.70
2015,09,26,13,09,15.70
2015,09,26,13,10,15.70
2015,09,26,13,11,15.70
2015,09,26,13,12,15.70
2015,09,26,13,13,15.60
2015,09,26,13,14,15.50
2015,09,26,13,15,15.50
2015,09,26,13,16,15.50
2015,09,26,13,17,15.50
2015,09,26,13,18,15.50
2015,09,26,13,19,15.50
2015,09,26,13,20,15.60
2015,09,26,13,21,15.60
2015,09,26,13,22,15.70
2015,09,26,13,23,15.70
2015,09,26,13,24,15.70
2015,09,26,13,25,15.70
2015,09,26,13,26,15.70
2015,09,26,13,27,15.70
2015,09,26,13,28,15.70
2015,09,26,13,29,15.70
2015,09,26,13,30,15.70
2015,09,26,13,31,15.80
2015,09,26,13,32,15.80
2015,09,26,13,33,15.80
2015,09,26,13,34,15.80
2015,09,26,13,35,15.90
2015,09,26,13,36,15.90
2015,09,26,13,37,15.90
2015,09,26,13,38,15.90
2015,09,26,13,39,16.00
2015,09,26,13,40,16.00
2015,09,26,13,41,16.00
2015,09,26,13,42,16.00
2015,09,26,13,43,16.10
2015,09,26,13,44,16.20
2015,09,26,13,45,16.20
2015,09,26,13,46,16.20
2015,09,26,13,47,16.20
2015,09,26,13,48,16.20
2015,09,26,13,49,16.20
2015,09,26,13,50,16.20
2015,09,26,13,51,16.10
2015,09,26,13,52,16.00
2015,09,26,13,53,15.90
2015,09,26,13,54,15.90
2015,09,26,13,55,15.90
2015,09,26,13,56,16.00
2015,09,26,13,57,16.00
2015,09,26,13,58,16.00
2015,09,26,13,59,16.10
2015,09,26,14,00,16.10
2015,09,26,14,01,16.00
2015,09,26,14,02,16.00
2015,09,26,14,03,15.90
2015,09,26,14,04,15.90
2015,09,26,14,05,15.90
2015,09,26,14,06,15.90
2015,09,26,14,07,15.80
2015,09,26,14,08,15.80
2015,09,26,14,09,15.70
2015,09,26,14,10,15.70
2015,09,26,14,11,15.70
2015,09,26,14,12,15.80
2015,09,26,14,13,15.80
2015,09,26,14,14,15.80
2015,09,26,14,15,15.80
2015,09,26,14,16,15.80
2015,09,26,14,17,15.90
2015,09,26,14,18,15.90
2015,09,26,14,19,15.90
2015,09,26,14,20,15.90
2015,09,26,14,21,16.00
2015,09,26,14,22,16.00
2015,09,26,14,23,16.00
2015,09,26,14,24,16.10
2015,09,26,14,25,16.10
2015,09,26,14,26,16.10
2015,09,26,14,27,16.10
2015,09,26,14,28,16.10
2015,09,26,14,29,16.10
2015,09,26,14,30,16.10
2015,09,26,14,31,16.10
2015,09,26,14,32,16.10
2015,09,26,14,33,16.20
2015,09,26,14,34,16.20
2015,09,26,14,35,16.20
2015,09,26,14,36,16.20
2015,09,26,14,37,16.30
2015,09,26,14,38,16.30
2015,09,26,14,39,16.30
2015,09,26,14,40,16.30
2015,09,26,14,41,16.30
2015,09,26,14,42,16.20
2015,09,26,14,43,16.20
2015,09,26,14,44,16.20
2015,09,26,14,45,16.20
2015,09,26,14,46,16.10
2015,09,26,14,47,16.10
2015,09,26,14,48,16.10
2015,09,26,14,49,16.10
2015,09,26,14,50,16.10
2015,09,26,14,51,16.00
2015,09,26,14,52,16.00
2015,09,26,14,53,15.90
2015,09,26,14,54,15.90
2015,09,26,14,55,15.90
2015,09,26,14,56,15.80
2015,09,26,14,57,15.80
2015,09,26,14,58,15.80
2015,09,26,14,59,15.80
2015,09,26,15,00,15.90
2015,09,26,15,01,15.90
2015,09,26,15,02,15.90
2015,09,26,15,03,15.90
2015,09,26,15,04,15.90
2015,09,26,15,05,15.80
2015,09,26,15,06,15.80
2015,09,26,15,07,15.80
2015,09,26,15,08,15.80
2015,09,26,15,09,15.80
2015,09,26,15,10,15.80
2015,09,26,15,11,15.80
2015,09,26,15,12,15.80
2015,09,26,15,13,15.80
2015,09,26,15,14,15.80
2015,09,26,15,15,15.80
2015,09,26,15,16,15.90
2015,09,26,15,17,15.90
2015,09,26,15,18,15.90
2015,09,26,15,19,15.90
2015,09,26,15,20,15.90
2015,09,26,15,21,15.90
2015,09,26,15,22,15.90
2015,09,26,15,23,15.90
2015,09,26,15,24,15.90
2015,09,26,15,25,15.90
2015,09,26,15,26,16.00
2015,09,26,15,27,16.00
2015,09,26,15,28,15.90
2015,09,26,15,29,15.90
2015,09,26,15,30,15.90
2015,09,26,15,31,15.90
2015,09,26,15,32,15.90
2015,09,26,15,33,15.90
2015,09,26,15,34,15.90
2015,09,26,15,35,16.00
2015,09,26,15,36,16.00
2015,09,26,15,37,16.00
2015,09,26,15,38,16.00
2015,09,26,15,39,15.90
2015,09,26,15,40,15.90
2015,09,26,15,41,15.90
2015,09,26,15,42,15.90
2015,09,26,15,43,15.90
2015,09,26,15,44,15.90
2015,09,26,15,45,15.90
2015,09,26,15,46,15.90
2015,09,26,15,47,15.90
2015,09,26,15,48,15.90
2015,09,26,15,49,15.90
2015,09,26,15,50,15.90
2015,09,26,15,51,15.90
2015,09,26,15,52,15.90
2015,09,26,15,53,15.90
2015,09,26,15,54,15.90
2015,09,26,15,55,15.90
2015,09,26,15,56,15.90
2015,09,26,15,57,15.90
2015,09,26,15,58,15.90
2015,09,26,15,59,15.80
2015,09,26,16,00,15.80
2015,09,26,16,01,15.80
2015,09,26,16,02,15.70
2015,09,26,16,03,15.70
2015,09,26,16,04,15.70
2015,09,26,16,05,15.70
2015,09,26,16,06,15.70
2015,09,26,16,07,15.70
2015,09,26,16,08,15.70
2015,09,26,16,09,15.70
2015,09,26,16,10,15.60
2015,09,26,16,11,15.60
2015,09,26,16,12,15.60
2015,09,26,16,13,15.60
2015,09,26,16,14,15.60
2015,09,26,16,15,15.60
2015,09,26,16,16,15.60
2015,09,26,16,17,15.60
2015,09,26,16,18,15.60
2015,09,26,16,19,15.60
2015,09,26,16,20,15.60
2015,09,26,16,21,15.60
2015,09,26,16,22,15.50
2015,09,26,16,23,15.50
2015,09,26,16,24,15.50
2015,09,26,16,25,15.50
2015,09,26,16,26,15.50
2015,09,26,16,27,15.50
2015,09,26,16,28,15.50
2015,09,26,16,29,15.40
2015,09,26,16,30,15.40
2015,09,26,16,31,15.40
2015,09,26,16,32,15.40
2015,09,26,16,33,15.40
2015,09,26,16,34,15.40
2015,09,26,16,35,15.40
2015,09,26,16,36,15.40
2015,09,26,16,37,15.40
2015,09,26,16,38,15.30
2015,09,26,16,39,15.30
2015,09,26,16,40,15.30
2015,09,26,16,41,15.30
2015,09,26,16,42,15.30
2015,09,26,16,43,15.30
2015,09,26,16,44,15.30
2015,09,26,16,45,15.30
2015,09,26,16,46,15.30
2015,09,26,16,47,15.30
2015,09,26,16,48,15.30
2015,09,26,16,49,15.30
2015,09,26,16,50,15.30
2015,09,26,16,51,15.30
2015,09,26,16,52,15.20
2015,09,26,16,53,15.20
2015,09,26,16,54,15.20
2015,09,26,16,55,15.20
2015,09,26,16,56,15.20
2015,09,26,16,57,15.20
2015,09,26,16,58,15.20
2015,09,26,16,59,15.20
2015,09,26,17,00,15.20
2015,09,26,17,01,15.20
2015,09,26,17,02,15.20
2015,09,26,17,03,15.20
2015,09,26,17,04,15.10
2015,09,26,17,05,15.10
2015,09,26,17,06,15.10
2015,09,26,17,07,15.00
2015,09,26,17,08,15.00
2015,09,26,17,09,15.00
2015,09,26,17,10,15.00
2015,09,26,17,11,15.00
2015,09,26,17,12,15.00
2015,09,26,17,13,14.90
2015,09,26,17,14,14.90
2015,09,26,17,15,14.90
2015,09,26,17,16,14.90
2015,09,26,17,17,14.90
2015,09,26,17,18,14.80
2015,09,26,17,19,14.80
2015,09,26,17,20,14.80
2015,09,26,17,21,14.70
2015,09,26,17,22,14.70
2015,09,26,17,23,14.70
2015,09,26,17,24,14.70
2015,09,26,17,25,14.70
2015,09,26,17,26,14.70
2015,09,26,17,27,14.60
2015,09,26,17,28,14.60
2015,09,26,17,29,14.60
2015,09,26,17,30,14.60
2015,09,26,17,31,14.60
2015,09,26,17,32,14.60
2015,09,26,17,33,14.60
2015,09,26,17,34,14.60
2015,09,26,17,35,14.60
2015,09,26,17,36,14.60
2015,09,26,17,37,14.60
2015,09,26,17,38,14.60
2015,09,26,17,39,14.50
2015,09,26,17,40,14.50
2015,09,26,17,41,14.50
2015,09,26,17,42,14.50
2015,09,26,17,43,14.50
2015,09,26,17,44,14.50
2015,09,26,17,45,14.50
2015,09,26,17,46,14.50
2015,09,26,17,47,14.50
2015,09,26,17,48,14.50
2015,09,26,17,49,14.50
2015,09,26,17,50,14.50
2015,09,26,17,51,14.50
2015,09,26,17,52,14.50
2015,09,26,17,53,14.50
2015,09,26,17,54,14.50
2015,09,26,17,55,14.50
2015,09,26,17,56,14.40
2015,09,26,17,57,14.40
2015,09,26,17,58,14.40
2015,09,26,17,59,14.40
2015,09,26,18,00,14.30
2015,09,26,18,01,14.30
2015,09,26,18,02,14.30
2015,09,26,18,03,14.30
2015,09,26,18,04,14.30
2015,09,26,18,05,14.20
2015,09,26,18,06,14.20
2015,09,26,18,07,14.20
2015,09,26,18,08,14.20
2015,09,26,18,09,14.10
2015,09,26,18,10,14.10
2015,09,26,18,11,14.10
2015,09,26,18,12,14.10
2015,09,26,18,13,14.10
2015,09,26,18,14,14.10
2015,09,26,18,15,14.10
2015,09,26,18,16,14.00
2015,09,26,18,17,14.00
2015,09,26,18,18,14.00
2015,09,26,18,19,13.90
2015,09,26,18,20,13.90
2015,09,26,18,21,13.90
2015,09,26,18,22,13.80
2015,09,26,18,23,13.80
2015,09,26,18,24,13.80
2015,09,26,18,25,13.80
2015,09,26,18,26,13.70
2015,09,26,18,27,13.70
2015,09,26,18,28,13.70
2015,09,26,18,29,13.70
2015,09,26,18,30,13.70
2015,09,26,18,31,13.60
2015,09,26,18,32,13.60
2015,09,26,18,33,13.60
2015,09,26,18,34,13.50
2015,09,26,18,35,13.50
2015,09,26,18,36,13.50
2015,09,26,18,37,13.40
2015,09,26,18,38,13.40
2015,09,26,18,39,13.40
2015,09,26,18,40,13.30
2015,09,26,18,41,13.30
2015,09,26,18,42,13.30
2015,09,26,18,43,13.20
2015,09,26,18,44,13.20
2015,09,26,18,45,13.20
2015,09,26,18,46,13.20
2015,09,26,18,47,13.10
2015,09,26,18,48,13.10
2015,09,26,18,49,13.10
2015,09,26,18,50,13.10
2015,09,26,18,51,13.00
2015,09,26,18,52,13.00
2015,09,26,18,53,13.00
2015,09,26,18,54,12.90
2015,09,26,18,55,12.90
2015,09,26,18,56,12.80
2015,09,26,18,57,12.80
2015,09,26,18,58,12.80
2015,09,26,18,59,12.80
2015,09,26,19,00,12.70
2015,09,26,19,01,12.60
2015,09,26,19,02,12.60
2015,09,26,19,03,12.50
2015,09,26,19,04,12.40
2015,09,26,19,05,12.40
2015,09,26,19,06,12.30
2015,09,26,19,07,12.30
2015,09,26,19,08,12.20
2015,09,26,19,09,12.20
2015,09,26,19,10,12.10
2015,09,26,19,11,12.10
2015,09,26,19,12,12.00
2015,09,26,19,13,12.00
2015,09,26,19,14,11.90
2015,09,26,19,15,11.90
2015,09,26,19,16,11.80
2015,09,26,19,17,11.80
2015,09,26,19,18,11.80
2015,09,26,19,19,11.70
2015,09,26,19,20,11.60
2015,09,26,19,21,11.60
2015,09,26,19,22,11.50
2015,09,26,19,23,11.40
2015,09,26,19,24,11.40
2015,09,26,19,25,11.30
2015,09,26,19,26,11.30
2015,09,26,19,27,11.30
2015,09,26,19,28,11.20
2015,09,26,19,29,11.20
2015,09,26,19,30,11.10
2015,09,26,19,31,11.10
2015,09,26,19,32,11.00
2015,09,26,19,33,11.00
2015,09,26,19,34,10.90
2015,09,26,19,35,10.90
2015,09,26,19,36,10.80
2015,09,26,19,37,10.80
2015,09,26,19,38,10.80
2015,09,26,19,39,10.80
2015,09,26,19,40,10.80
2015,09,26,19,41,10.70
2015,09,26,19,42,10.70
2015,09,26,19,43,10.70
2015,09,26,19,44,10.70
2015,09,26,19,45,10.70
2015,09,26,19,46,10.60
2015,09,26,19,47,10.50
2015,09,26,19,48,10.50
2015,09,26,19,49,10.40
2015,09,26,19,50,10.40
2015,09,26,19,51,10.30
2015,09,26,19,52,10.20
2015,09,26,19,53,10.20
2015,09,26,19,54,10.10
2015,09,26,19,55,10.10
2015,09,26,19,56,10.10
2015,09,26,19,57,10.00
2015,09,26,19,58,10.00
2015,09,26,19,59,10.00
2015,09,26,20,00,9.90
2015,09,26,20,01,9.90
2015,09,26,20,02,9.90
2015,09,26,20,03,9.90
2015,09,26,20,04,9.90
2015,09,26,20,05,9.90
2015,09,26,20,06,9.80
2015,09,26,20,07,9.80
2015,09,26,20,08,9.90
2015,09,26,20,09,9.90
2015,09,26,20,10,9.90
2015,09,26,20,11,9.80
2015,09,26,20,12,9.80
2015,09,26,20,13,9.80
2015,09,26,20,14,9.80
2015,09,26,20,15,9.80
2015,09,26,20,16,9.80
2015,09,26,20,17,9.80
2015,09,26,20,18,9.80
2015,09,26,20,19,9.80
2015,09,26,20,20,9.80
2015,09,26,20,21,9.80
2015,09,26,20,22,9.70
2015,09,26,20,23,9.70
2015,09,26,20,24,9.70
2015,09,26,20,25,9.60
2015,09,26,20,26,9.60
2015,09,26,20,27,9.60
2015,09,26,20,28,9.60
2015,09,26,20,29,9.50
2015,09,26,20,30,9.50
2015,09,26,20,31,9.50
2015,09,26,20,32,9.60
2015,09,26,20,33,9.50
2015,09,26,20,34,9.50
2015,09,26,20,35,9.50
2015,09,26,20,36,9.50
2015,09,26,20,37,9.40
2015,09,26,20,38,9.40
2015,09,26,20,39,9.40
2015,09,26,20,40,9.40
2015,09,26,20,41,9.40
2015,09,26,20,42,9.40
2015,09,26,20,43,9.40
2015,09,26,20,44,9.30
2015,09,26,20,45,9.30
2015,09,26,20,46,9.30
2015,09,26,20,47,9.30
2015,09,26,20,48,9.30
2015,09,26,20,49,9.30
2015,09,26,20,50,9.30
2015,09,26,20,51,9.30
2015,09,26,20,52,9.30
2015,09,26,20,53,9.30
2015,09,26,20,54,9.30
2015,09,26,20,55,9.30
2015,09,26,20,56,9.30
2015,09,26,20,57,9.30
2015,09,26,20,58,9.30
2015,09,26,20,59,9.30
2015,09,26,21,00,9.30
2015,09,26,21,01,9.40
2015,09,26,21,02,9.40
2015,09,26,21,03,9.40
2015,09,26,21,04,9.40
2015,09,26,21,05,9.40
2015,09,26,21,06,9.40
2015,09,26,21,07,9.40
2015,09,26,21,08,9.40
2015,09,26,21,09,9.40
2015,09,26,21,10,9.40
2015,09,26,21,11,9.30
2015,09,26,21,12,9.30
2015,09,26,21,13,9.30
2015,09,26,21,14,9.30
2015,09,26,21,15,9.30
2015,09,26,21,16,9.20
2015,09,26,21,17,9.20
2015,09,26,21,18,9.20
2015,09,26,21,19,9.20
2015,09,26,21,20,9.20
2015,09,26,21,21,9.20
2015,09,26,21,22,9.30
2015,09,26,21,23,9.30
2015,09,26,21,24,9.30
2015,09,26,21,25,9.20
2015,09,26,21,26,9.20
2015,09,26,21,27,9.20
2015,09,26,21,28,9.10
2015,09,26,21,29,9.10
2015,09,26,21,30,9.10
2015,09,26,21,31,9.10
2015,09,26,21,32,9.00
2015,09,26,21,33,9.00
2015,09,26,21,34,9.00
2015,09,26,21,35,9.00
2015,09,26,21,36,9.00
2015,09,26,21,37,8.90
2015,09,26,21,38,8.90
2015,09,26,21,39,8.90
2015,09,26,21,40,8.90
2015,09,26,21,41,8.90
2015,09,26,21,42,8.90
2015,09,26,21,43,8.80
2015,09,26,21,44,8.80
2015,09,26,21,45,8.80
2015,09,26,21,46,8.70
2015,09,26,21,47,8.70
2015,09,26,21,48,8.70
2015,09,26,21,49,8.70
2015,09,26,21,50,8.60
2015,09,26,21,51,8.60
2015,09,26,21,52,8.60
2015,09,26,21,53,8.50
2015,09,26,21,54,8.50
2015,09,26,21,55,8.50
2015,09,26,21,56,8.40
2015,09,26,21,57,8.40
2015,09,26,21,58,8.40
2015,09,26,21,59,8.30
2015,09,26,22,00,8.30
2015,09,26,22,01,8.30
2015,09,26,22,02,8.20
2015,09,26,22,03,8.20
2015,09,26,22,04,8.10
2015,09,26,22,05,8.10
2015,09,26,22,06,8.10
2015,09,26,22,07,8.00
2015,09,26,22,08,8.00
2015,09,26,22,09,7.90
2015,09,26,22,10,7.90
2015,09,26,22,11,7.90
2015,09,26,22,12,7.80
2015,09,26,22,13,7.80
2015,09,26,22,14,7.80
2015,09,26,22,15,7.80
2015,09,26,22,16,7.80
2015,09,26,22,17,7.80
2015,09,26,22,18,7.80
2015,09,26,22,19,7.80
2015,09,26,22,20,7.70
2015,09,26,22,21,7.70
2015,09,26,22,22,7.70
2015,09,26,22,23,7.70
2015,09,26,22,24,7.70
2015,09,26,22,25,7.70
2015,09,26,22,26,7.70
2015,09,26,22,27,7.70
2015,09,26,22,28,7.70
2015,09,26,22,29,7.70
2015,09,26,22,30,7.60
2015,09,26,22,31,7.60
2015,09,26,22,32,7.60
2015,09,26,22,33,7.60
2015,09,26,22,34,7.60
2015,09,26,22,35,7.50
2015,09,26,22,36,7.50
2015,09,26,22,37,7.50
2015,09,26,22,38,7.40
2015,09,26,22,39,7.40
2015,09,26,22,40,7.30
2015,09,26,22,41,7.30
2015,09,26,22,42,7.30
2015,09,26,22,43,7.20
2015,09,26,22,44,7.20
2015,09,26,22,45,7.10
2015,09,26,22,46,7.10
2015,09,26,22,47,7.00
2015,09,26,22,48,7.00
2015,09,26,22,49,6.90
2015,09,26,22,50,6.90
2015,09,26,22,51,6.90
2015,09,26,22,52,6.90
2015,09,26,22,53,6.90
2015,09,26,22,54,6.80
2015,09,26,22,55,6.80
2015,09,26,22,56,6.80
2015,09,26,22,57,6.80
2015,09,26,22,58,6.80
2015,09,26,22,59,6.80
2015,09,26,23,00,6.80
2015,09,26,23,01,6.80
2015,09,26,23,02,6.80
2015,09,26,23,03,6.80
2015,09,26,23,04,6.80
2015,09,26,23,05,6.80
2015,09,26,23,06,6.80
2015,09,26,23,07,6.70
2015,09,26,23,08,6.70
2015,09,26,23,09,6.70
2015,09,26,23,10,6.70
2015,09,26,23,11,6.70
2015,09,26,23,12,6.70
2015,09,26,23,13,6.70
2015,09,26,23,14,6.70
2015,09,26,23,15,6.60
2015,09,26,23,16,6.60
2015,09,26,23,17,6.60
2015,09,26,23,18,6.60
2015,09,26,23,19,6.60
2015,09,26,23,20,6.50
2015,09,26,23,21,6.50
2015,09,26,23,22,6.50
2015,09,26,23,23,6.40
2015,09,26,23,24,6.40
2015,09,26,23,25,6.40
2015,09,26,23,26,6.40
2015,09,26,23,27,6.40
2015,09,26,23,28,6.40
2015,09,26,23,29,6.40
2015,09,26,23,30,6.40
2015,09,26,23,31,6.40
2015,09,26,23,32,6.40
2015,09,26,23,33,6.40
2015,09,26,23,34,6.40
2015,09,26,23,35,6.40
2015,09,26,23,36,6.40
2015,09,26,23,37,6.40
2015,09,26,23,38,6.40
2015,09,26,23,39,6.40
2015,09,26,23,40,6.40
2015,09,26,23,41,6.40
2015,09,26,23,42,6.40
2015,09,26,23,43,6.40
2015,09,26,23,44,6.40
2015,09,26,23,45,6.40
2015,09,26,23,46,6.30
2015,09,26,23,47,6.30
2015,09,26,23,48,6.30
2015,09,26,23,49,6.40
2015,09,26,23,50,6.40
2015,09,26,23,51,6.40
2015,09,26,23,52,6.40
2015,09,26,23,53,6.40
2015,09,26,23,54,6.40
2015,09,26,23,55,6.40
2015,09,26,23,56,6.40
2015,09,26,23,57,6.40
2015,09,26,23,58,6.40
2015,09,26,23,59,6.30
